Location: Newark
(44.6028°N, 124.0883°W)
Time: 06:47:29
(UTC+00:00)

Tiros 1 despin weight - Visible Passes

Search period start: 20 October 2019 00:00
Search period end: 30 October 2019 00:00
Orbit: 593 x 643 km, 48.2° (Epoch: 19 October)

Date Brightness Start Highest point End Pass type
(mag) Time Alt. Az. Time Alt. Az. Time Alt. Az.
20 Oct ? 11:51:57 40° NE 11:51:57 40° NE 11:55:16 10° ENE visible
20 Oct ? 13:29:01 18° WNW 13:32:34 81° NNE 13:37:15 10° ESE visible
21 Oct ? 12:07:57 54° NE 12:07:57 54° NE 12:12:02 10° E visible
21 Oct ? 13:45:01 13° WNW 13:49:09 70° SSW 13:53:48 10° SE visible
22 Oct ? 12:23:59 69° N 12:24:08 69° NNE 12:28:49 10° E visible
22 Oct ? 14:01:10 10° WNW 14:05:38 43° SW 14:10:03 10° SE visible
23 Oct ? 11:03:00 13° E 11:03:00 13° E 11:03:33 10° E visible
23 Oct ? 12:40:05 65° WNW 12:40:46 87° SSW 12:45:28 10° ESE visible
24 Oct ? 11:19:10 17° E 11:19:10 17° E 11:20:20 10° E visible
24 Oct ? 12:56:15 45° W 12:57:19 58° SSW 13:01:55 10° SE visible
25 Oct ? 11:35:25 22° ESE 11:35:25 22° ESE 11:37:04 10° ESE visible
25 Oct ? 13:12:30 30° WSW 13:13:45 35° SW 13:17:59 10° SSE visible
26 Oct ? 11:51:45 24° SE 11:51:45 24° SE 11:53:39 10° ESE visible
26 Oct ? 13:28:51 18° WSW 13:30:02 20° SW 13:33:27 10° S visible
27 Oct ? 12:08:12 22° SSE 12:08:12 22° SSE 12:09:57 10° SE visible
27 Oct ? 13:45:18 10° WSW 13:46:11 11° SW 13:47:09 10° SW visible
28 Oct ? 12:24:44 15° S 12:24:44 15° S 12:25:48 10° SSE visible
